Location: Tel Aviv
(32.0670°N, 34.7670°E)
Time: 19:57:08
(UTC+03:00)

Vanguard 2 Rocket - Pass Details

Date: 31 January 2022
Orbit: 553 x 3323 km, 32.9° (Epoch: 24 May)

Event Time Altitude Azimuth Distance (km) Brightness Sun altitude
Exits shadow 03:58:25 51° 276° (W) 3,562 9.3 -33.4°
Maximum altitude 04:05:27 83° 197° (SSW) 3,252 9.4 -31.9°
Drops below altitude 10° 04:25:51 10° 112° (ESE) 6,042 11.9 -27.6°
Sets 04:30:07 0° 112° (ESE) 6,866 12.5 -26.7°
